Location: Vancouver
(49.2500°N, 123.1330°W)
Time: 21:32:34
(UTC-07:00)

ISS - Visible Passes

Search period start: 25 July 2016 00:00
Search period end: 04 August 2016 00:00
Orbit: 401 x 404 km, 51.6° (Epoch: 25 July)

Date Brightness Start Highest point End Pass type
(mag) Time Alt. Az. Time Alt. Az. Time Alt. Az.
25 Jul -2.7 01:02:16 52° NE 01:02:16 52° NE 01:04:54 10° ENE visible
25 Jul -2.7 02:35:05 10° WNW 02:38:18 56° N 02:41:32 10° E visible
25 Jul -3.4 04:11:34 10° WNW 04:14:48 60° SSW 04:18:01 10° SE visible
25 Jul -2.0 22:30:01 10° SSW 22:32:10 21° SSE 22:32:10 21° SSE visible
26 Jul -1.8 00:10:23 26° ENE 00:10:23 26° ENE 00:11:58 10° ENE visible
26 Jul -2.6 01:42:50 16° WNW 01:45:18 53° N 01:48:31 10° E visible
26 Jul -3.5 03:18:37 10° WNW 03:21:54 88° SSW 03:25:10 10° ESE visible
26 Jul -2.0 04:55:28 10° W 04:58:01 21° SW 05:00:33 10° SSE visible
26 Jul -1.5 21:38:16 10° SSE 21:39:53 13° SE 21:41:29 10° ESE visible
26 Jul -3.4 23:12:34 10° SW 23:15:47 61° SSE 23:19:01 10° ENE visible
27 Jul -2.7 00:49:04 10° W 00:52:17 56° N 00:55:31 10° ENE visible
27 Jul -3.1 02:25:41 10° WNW 02:28:57 70° NNE 02:32:12 10° E visible
27 Jul -2.7 04:02:15 10° W 04:05:15 33° SSW 04:08:13 10° SSE visible
27 Jul -2.9 22:19:52 10° SW 22:22:56 39° SSE 22:26:01 10° E visible
27 Jul -3.0 23:56:02 10° W 23:59:17 65° NNW 00:02:32 10° ENE visible
28 Jul -2.3 01:32:43 10° WNW 01:41:16 - E 01:35:07 41° NW visible
28 Jul -1.6 03:14:23 20° SE 03:14:23 20° SE 03:15:36 10° SE visible
28 Jul -1.3 04:47:28 10° WSW 04:48:15 11° SW 04:49:14 10° SSW visible
28 Jul -3.4 23:03:03 10° WSW 23:06:19 84° NNW 23:09:36 10° ENE visible
29 Jul -2.6 00:39:43 10° WNW 00:42:56 53° N 00:43:21 49° NNE visible
29 Jul -3.4 22:10:09 10° WSW 22:13:23 69° SSE 22:16:38 10° ENE visible
29 Jul -2.6 23:46:42 10° W 23:49:55 54° N 23:51:54 21° ENE visible
30 Jul -1.2 01:23:17 10° WNW 01:24:29 20° WNW 01:24:29 20° WNW visible
30 Jul -2.9 22:53:40 10° W 22:56:55 62° N 23:00:09 10° ENE visible
31 Jul -2.6 00:30:20 10° WNW 00:33:08 53° NNW 00:33:08 53° NNW visible
31 Jul -3.2 22:00:39 10° WSW 22:03:55 78° NNW 22:07:11 10° ENE visible
31 Jul -2.7 23:37:20 10° WNW 23:40:33 54° N 23:41:50 31° ENE visible
01 Aug -0.7 01:13:50 10° WNW 01:14:24 14° WNW 01:14:24 14° WNW visible
01 Aug -2.6 22:44:18 10° W 22:47:31 54° N 22:50:32 11° ENE visible
02 Aug -2.2 00:20:53 10° WNW 00:23:06 40° WNW 00:23:06 40° WNW visible
02 Aug -2.8 21:51:16 10° W 21:54:30 59° N 21:57:44 10° ENE visible
02 Aug -3.0 23:27:55 10° WNW 23:31:10 64° NNE 23:31:50 48° ENE visible
03 Aug -2.7 22:34:55 10° WNW 22:38:08 55° N 22:40:33 16° E visible
